Flag for U.S.A. Weather past 2 weeks in Palo Alto, California, U.S.A.

Now
45 °F

Clear.


Feels Like: 45 °F
Forecast: 46 / 64 °F
Wind: No wind

Location: Moffett Field

Current Time: Jan 28, 2015 at 4:24:21 AM

Latest Report: Jan 28, 2015 at 3:56 AM


Visibility: 10 mi

Pressure: 30.27 "Hg

Humidity: 90%

Dew point: 42 °F

Location of Palo AltoLocation

Historic Weather in Palo Alto — Graph

°F

Palo Alto temperature yesterday

Maximum temperature yesterday: 68 °F (at 10:56 AM)
Minimum temperature yesterday: 51 °F (at 10:56 PM)
Average temperature yesterday: 61 °F

Past Weeks' High & Low Weather Summary

 TemperatureHumidityPressure
High69 °F (Jan 24, 1:56 PM)100% (Jan 13, 2:59 AM)30.38 "Hg (Jan 13, 2:59 AM)
Low38 °F (Jan 14, 6:56 AM)26% (Jan 24, 3:56 PM)29.97 "Hg (Jan 26, 3:56 PM)
Average53 °F72%30.21 "Hg
* Reported Jan 13 2:59 AM — Jan 28 2:56 AM, Palo Alto, Weather by CustomWeather, © 2014

Note: Actual official high and low records may vary slightly from our data, if they occured in-between our weather recording intervals... More about our weather records

Advertising

Palo Alto weather history for previous 24 hours

 ConditionsComfort  
Time TempWeatherWind HumidityBarometerVisibility
2:56 AM
Jan 28
49 °FClear.No wind80%30.27 "Hg10 mi
1:56 AM49 °FClear.No wind80%30.26 "Hg10 mi
12:56 AM50 °FClear.No wind80%30.26 "Hg10 mi
11:56 PM
Jan 27
51 °FClear.No wind80%30.27 "Hg10 mi
10:56 PM51 °FClear.No wind77%30.27 "Hg10 mi
9:56 PM55 °FClear.No wind72%30.27 "Hg10 mi
8:56 PM57 °FClear.3 mph67%30.26 "Hg10 mi
7:56 PM58 °FClear.No wind62%30.25 "Hg10 mi
6:56 PM60 °FClear.8 mph60%30.24 "Hg10 mi
5:56 PM60 °FClear.7 mph62%30.22 "Hg10 mi
4:56 PM62 °FSunny.7 mph60%30.21 "Hg10 mi
3:56 PM64 °FOvercast.6 mph52%30.21 "Hg10 mi
2:56 PM66 °FPartly sunny.8 mph47%30.20 "Hg10 mi
1:56 PM66 °FOvercast.8 mph43%30.19 "Hg10 mi
12:56 PM68 °FOvercast.6 mph40%30.19 "Hg10 mi
11:56 AM67 °FOvercast.9 mph45%30.19 "Hg10 mi
10:56 AM68 °FOvercast.6 mph38%30.19 "Hg10 mi
9:56 AM65 °FScattered clouds.6 mph44%30.18 "Hg10 mi
8:56 AM63 °FSunny.7 mph45%30.17 "Hg10 mi
7:56 AM62 °FMore clouds than sun.5 mph50%30.16 "Hg10 mi
6:56 AM62 °FOvercast.12 mph50%30.13 "Hg10 mi
5:56 AM63 °FMostly cloudy.13 mph45%30.11 "Hg10 mi
4:56 AM63 °FOvercast.6 mph45%30.09 "Hg10 mi
Weather by CustomWeather, © 2014

See weather overviewHow to use our weather pages